| time (UTC) | temp F | wind direction | speed knots | gust knots | rain 1hr in | rain 24hr in | rain mn in | humidity % | barometer mb |
| 20260506192522 | 53 | 160 | 7.8 | 11.3 | 0.00 | 0.00 | 0.00 | 89 | 1016.3 |
| 20260506191519 | 53 | 169 | 7.8 | 9.6 | 0.00 | 0.00 | 0.00 | 89 | 1016.3 |
| 20260506190516 | 53 | 155 | 7.8 | 11.3 | 0.00 | 0.00 | 0.00 | 89 | 1016.2 |
| 20260506185553 | 53 | 164 | 7.8 | 13.0 | 0.00 | 0.00 | 0.00 | 89 | 1016.2 |
| 20260506184530 | 53 | 154 | 7.0 | 10.4 | 0.00 | 0.00 | 0.00 | 90 | 1016.1 |
| 20260506183527 | 54 | 146 | 8.7 | 13.0 | 0.00 | 0.00 | 0.00 | 90 | 1016.0 |
| 20260506182524 | 54 | 150 | 7.0 | 12.2 | 0.00 | 0.00 | 0.00 | 90 | 1016.0 |
| 20260506181521 | 54 | 151 | 7.8 | 11.3 | 0.00 | 0.00 | 0.00 | 90 | 1015.8 |
| 20260506180518 | 54 | 161 | 7.0 | 10.4 | 0.00 | 0.00 | 0.00 | 90 | 1015.8 |
| 20260506175535 | 54 | 154 | 7.8 | 13.0 | 0.00 | 0.00 | 0.00 | 89 | 1015.8 |
| 20260506174552 | 54 | 147 | 7.8 | 13.0 | 0.00 | 0.00 | 0.00 | 89 | 1015.6 |
| 20260506173529 | 54 | 146 | 7.8 | 12.2 | 0.00 | 0.00 | 0.00 | 88 | 1015.6 |
| 20260506172527 | 55 | 155 | 7.8 | 13.0 | 0.00 | 0.00 | 0.00 | 88 | 1015.5 |
| 20260506171523 | 55 | 145 | 7.8 | 13.0 | 0.00 | 0.00 | 0.00 | 88 | 1015.5 |
| 20260506170600 | 55 | 138 | 7.8 | 13.0 | 0.00 | 0.00 | 0.00 | 87 | 1015.4 |
| 20260506165517 | 55 | 147 | 7.0 | 11.3 | 0.00 | 0.00 | 0.00 | 86 | 1015.2 |
| 20260506164534 | 56 | 142 | 8.7 | 13.0 | 0.00 | 0.00 | 0.00 | 84 | 1015.2 |
| 20260506163531 | 56 | 140 | 9.6 | 13.0 | 0.00 | 0.00 | 0.00 | 83 | 1015.3 |
| 20260506162528 | 57 | 157 | 7.8 | 11.3 | 0.00 | 0.00 | 0.00 | 81 | 1015.3 |
| 20260506161525 | 57 | 133 | 8.7 | 12.2 | 0.00 | 0.00 | 0.00 | 81 | 1015.2 |
| 20260506160522 | 57 | 137 | 8.7 | 13.0 | 0.00 | 0.00 | 0.00 | 80 | 1015.3 |
| 20260506155518 | 57 | 136 | 8.7 | 13.9 | 0.00 | 0.00 | 0.00 | 80 | 1015.3 |
| 20260506154536 | 58 | 147 | 7.8 | 13.0 | 0.00 | 0.00 | 0.00 | 78 | 1015.1 |
| 20260506153553 | 58 | 165 | 8.7 | 13.9 | 0.00 | 0.00 | 0.00 | 75 | 1015.3 |
| 20260506152529 | 58 | 155 | 7.8 | 13.0 | 0.00 | 0.00 | 0.00 | 75 | 1015.4 |
| 20260506151526 | 58 | 144 | 7.8 | 13.9 | 0.00 | 0.00 | 0.00 | 75 | 1015.4 |
| 20260506150524 | 58 | 152 | 7.8 | 13.0 | 0.00 | 0.00 | 0.00 | 74 | 1015.4 |
| 20260506145520 | 59 | 150 | 7.8 | 13.9 | 0.00 | 0.00 | 0.00 | 73 | 1015.5 |
| 20260506144517 | 59 | 163 | 7.8 | 13.9 | 0.00 | 0.00 | 0.00 | 73 | 1015.5 |
| 20260506143535 | 59 | 158 | 7.0 | 13.0 | 0.00 | 0.00 | 0.00 | 73 | 1015.5 |
| 20260506142531 | 60 | 158 | 7.0 | 13.9 | 0.00 | 0.00 | 0.00 | 71 | 1015.5 |
| 20260506141528 | 60 | 143 | 9.6 | 14.8 | 0.00 | 0.00 | 0.00 | 70 | 1015.5 |
| 20260506140525 | 60 | 149 | 8.7 | 15.6 | 0.00 | 0.00 | 0.00 | 70 | 1015.5 |
| 20260506135522 | 60 | 164 | 7.8 | 13.9 | 0.00 | 0.00 | 0.00 | 68 | 1015.5 |
| 20260506134519 | 60 | 120 | 7.8 | 13.9 | 0.00 | 0.00 | 0.00 | 66 | 1015.3 |
| 20260506133516 | 61 | 138 | 8.7 | 17.4 | 0.00 | 0.00 | 0.00 | 63 | 1015.5 |
| 20260506132553 | 61 | 124 | 7.0 | 16.5 | 0.00 | 0.00 | 0.00 | 63 | 1015.4 |
| 20260506131530 | 61 | 127 | 8.7 | 25.2 | 0.00 | 0.00 | 0.00 | 60 | 1015.4 |
| 20260506130547 | 63 | 161 | 8.7 | 17.4 | 0.00 | 0.00 | 0.00 | 56 | 1015.5 |
| 20260506125524 | 62 | 121 | 7.8 | 13.0 | 0.00 | 0.00 | 0.00 | 55 | 1015.5 |
| 20260506124521 | 62 | 126 | 9.6 | 15.6 | 0.00 | 0.00 | 0.00 | 53 | 1015.6 |
| 20260506123518 | 62 | 119 | 7.8 | 13.9 | 0.00 | 0.00 | 0.00 | 49 | 1015.6 |
| 20260506122535 | 62 | 138 | 7.8 | 14.8 | 0.00 | 0.00 | 0.00 | 50 | 1015.8 |
| 20260506121552 | 62 | 133 | 8.7 | 17.4 | 0.00 | 0.00 | 0.00 | 52 | 1015.8 |
| 20260506120529 | 62 | 129 | 9.6 | 16.5 | 0.00 | 0.00 | 0.00 | 55 | 1015.9 |
| 20260506115526 | 61 | 122 | 7.8 | 18.2 | 0.00 | 0.00 | 0.00 | 57 | 1015.9 |
| 20260506114523 | 61 | 126 | 8.7 | 18.2 | 0.00 | 0.00 | 0.00 | 58 | 1016.0 |
| 20260506113540 | 61 | 123 | 8.7 | 16.5 | 0.00 | 0.00 | 0.00 | 58 | 1016.2 |
| 20260506112517 | 61 | 118 | 8.7 | 15.6 | 0.00 | 0.00 | 0.00 | 57 | 1016.2 |
| 20260506111533 | 61 | 124 | 9.6 | 21.7 | 0.00 | 0.00 | 0.00 | 56 | 1016.2 |
| 20260506110711 | 61 | 128 | 7.0 | 12.2 | 0.00 | 0.00 | 0.00 | 59 | 1016.2 |
| 20260506105528 | 61 | 125 | 7.8 | 13.9 | 0.00 | 0.00 | 0.00 | 58 | 1016.1 |
| 20260506104524 | 62 | 126 | 8.7 | 19.1 | 0.00 | 0.00 | 0.00 | 55 | 1016.2 |
| 20260506103541 | 62 | 142 | 7.8 | 15.6 | 0.00 | 0.00 | 0.00 | 52 | 1016.2 |
| 20260506102517 | 62 | 133 | 9.6 | 17.4 | 0.00 | 0.00 | 0.00 | 53 | 1016.3 |
| 20260506101535 | 61 | 123 | 7.8 | 15.6 | 0.00 | 0.00 | 0.00 | 55 | 1016.3 |
| 20260506100532 | 62 | 145 | 8.7 | 14.8 | 0.00 | 0.00 | 0.00 | 56 | 1016.3 |
| 20260506095529 | 62 | 150 | 7.8 | 13.9 | 0.00 | 0.00 | 0.00 | 54 | 1016.4 |
| 20260506094525 | 61 | 142 | 8.7 | 13.0 | 0.00 | 0.00 | 0.00 | 55 | 1016.4 |
| 20260506093522 | 61 | 147 | 9.6 | 15.6 | 0.00 | 0.00 | 0.00 | 55 | 1016.4 |
| 20260506092520 | 61 | 143 | 9.6 | 16.5 | 0.00 | 0.00 | 0.00 | 56 | 1016.3 |
| 20260506091516 | 60 | 147 | 11.3 | 18.2 | 0.00 | 0.00 | 0.00 | 56 | 1016.4 |
| 20260506090533 | 60 | 152 | 8.7 | 14.8 | 0.00 | 0.00 | 0.00 | 59 | 1016.4 |
| 20260506085551 | 60 | 152 | 7.8 | 15.6 | 0.00 | 0.00 | 0.00 | 61 | 1016.4 |
| 20260506084527 | 59 | 140 | 7.8 | 14.8 | 0.00 | 0.00 | 0.00 | 64 | 1016.4 |
| 20260506083524 | 58 | 136 | 7.8 | 17.4 | 0.00 | 0.00 | 0.00 | 68 | 1016.3 |
| 20260506082521 | 57 | 130 | 7.8 | 14.8 | 0.00 | 0.00 | 0.00 | 70 | 1016.2 |
| 20260506081519 | 57 | 146 | 7.0 | 13.9 | 0.00 | 0.00 | 0.00 | 74 | 1016.2 |
| 20260506080535 | 57 | 149 | 7.8 | 13.9 | 0.00 | 0.00 | 0.00 | 76 | 1016.1 |
| 20260506073526 | 54 | 131 | 7.8 | 14.8 | 0.00 | 0.00 | 0.00 | 81 | 1016.1 |
| 20260506072523 | 55 | 138 | 7.0 | 13.9 | 0.00 | 0.00 | 0.00 | 78 | 1016.2 |
| 20260506071521 | 56 | 150 | 7.0 | 17.4 | 0.00 | 0.00 | 0.00 | 73 | 1015.9 |
| 20260506070518 | 60 | 159 | 7.0 | 13.9 | 0.00 | 0.00 | 0.00 | 62 | 1015.8 |
| 20260506062051 | 58 | 188 | 8.7 | 10.4 | 0.00 | 0.00 | 0.00 | 66 | 1015.8 |
| 20260506061048 | 55 | 190 | 10.4 | 11.3 | 0.00 | 0.00 | 0.00 | 69 | 1015.9 |
| 20260506060205 | 57 | 184 | 8.7 | 10.4 | 0.00 | 0.00 | 0.00 | 69 | 1015.8 |
| 20260506051030 | 49 | 189 | 9.6 | 12.2 | 0.00 | 0.00 | 0.00 | 81 | 1015.8 |
| 20260506045024 | 47 | 189 | 9.6 | 11.3 | 0.00 | 0.00 | 0.00 | 82 | 1015.8 |
| 20260506044022 | 46 | 194 | 11.3 | 13.9 | 0.00 | 0.00 | 0.00 | 84 | 1015.7 |
| 20260506043019 | 45 | 192 | 11.3 | 13.0 | 0.00 | 0.00 | 0.00 | 85 | 1015.6 |
| 20260506042056 | 44 | 190 | 11.3 | 16.5 | 0.00 | 0.00 | 0.00 | 85 | 1015.6 |
| 20260506041033 | 44 | 198 | 11.3 | 14.8 | 0.00 | 0.00 | 0.00 | 86 | 1015.5 |
| 20260506040030 | 43 | 196 | 11.3 | 15.6 | 0.00 | 0.00 | 0.00 | 87 | 1015.4 |
| 20260506035027 | 43 | 194 | 12.2 | 14.8 | 0.00 | 0.00 | 0.00 | 89 | 1015.2 |
| 20260506034024 | 43 | 194 | 10.4 | 12.2 | 0.00 | 0.00 | 0.00 | 90 | 1015.3 |
| 20260506033021 | 42 | 190 | 10.4 | 13.9 | 0.00 | 0.00 | 0.00 | 91 | 1015.2 |
| 20260506032018 | 42 | 191 | 10.4 | 13.9 | 0.00 | 0.00 | 0.00 | 92 | 1015.1 |
| 20260506031035 | 42 | 191 | 11.3 | 13.0 | 0.00 | 0.00 | 0.00 | 93 | 1014.9 |
| 20260506030032 | 42 | 191 | 9.6 | 12.2 | 0.00 | 0.00 | 0.00 | 92 | 1014.9 |
| 20260506025029 | 42 | 189 | 10.4 | 13.0 | 0.00 | 0.00 | 0.00 | 93 | 1014.9 |
| 20260506024026 | 42 | 192 | 11.3 | 13.9 | 0.00 | 0.00 | 0.00 | 94 | 1015.0 |
| 20260506023023 | 42 | 192 | 10.4 | 13.9 | 0.00 | 0.00 | 0.00 | 94 | 1014.9 |
| 20260506022020 | 42 | 190 | 11.3 | 13.0 | 0.00 | 0.00 | 0.00 | 94 | 1014.9 |
| 20260506021017 | 42 | 188 | 11.3 | 13.9 | 0.00 | 0.00 | 0.00 | 93 | 1014.9 |
| 20260506020035 | 43 | 190 | 9.6 | 13.0 | 0.00 | 0.00 | 0.00 | 93 | 1015.0 |
| 20260506015032 | 44 | 188 | 12.2 | 16.5 | 0.00 | 0.00 | 0.00 | 93 | 1014.8 |
| 20260506014029 | 44 | 190 | 11.3 | 13.0 | 0.00 | 0.00 | 0.00 | 92 | 1014.8 |
| 20260506013026 | 44 | 191 | 11.3 | 13.0 | 0.00 | 0.00 | 0.00 | 93 | 1014.9 |
| 20260506012023 | 45 | 189 | 10.4 | 12.2 | 0.00 | 0.00 | 0.00 | 93 | 1015.1 |
| 20260506011019 | 45 | 188 | 10.4 | 13.9 | 0.00 | 0.00 | 0.00 | 93 | 1015.1 |
| 20260506010017 | 46 | 182 | 10.4 | 12.2 | 0.00 | 0.00 | 0.00 | 94 | 1015.2 |
| 20260506005034 | 45 | 182 | 10.4 | 12.2 | 0.00 | 0.00 | 0.00 | 94 | 1015.0 |
| 20260506004111 | 45 | 182 | 8.7 | 9.6 | 0.00 | 0.00 | 0.00 | 94 | 1015.1 |
| 20260506003028 | 45 | 188 | 9.6 | 10.4 | 0.00 | 0.00 | 0.00 | 94 | 1015.1 |
| 20260506002025 | 46 | 190 | 10.4 | 12.2 | 0.00 | 0.00 | 0.00 | 93 | 1015.2 |
| 20260506001022 | 46 | 183 | 9.6 | 9.6 | 0.00 | 0.00 | 0.00 | 91 | 1015.0 |
| 20260506000019 | 47 | 187 | 9.6 | 11.3 | 0.00 | 0.00 | 0.00 | 91 | 1015.0 |
| 20260505235016 | 46 | 185 | 8.7 | 10.4 | 0.00 | 0.00 | 0.00 | 92 | 1015.1 |
| 20260505234033 | 46 | 182 | 8.7 | 11.3 | 0.00 | 0.00 | 0.00 | 91 | 1015.4 |
| 20260505233030 | 47 | 191 | 10.4 | 12.2 | 0.00 | 0.00 | 0.00 | 92 | 1015.3 |
| 20260505232028 | 47 | 193 | 10.4 | 12.2 | 0.00 | 0.00 | 0.00 | 91 | 1015.5 |
| 20260505231024 | 47 | 192 | 10.4 | 13.0 | 0.00 | 0.00 | 0.00 | 90 | 1015.6 |
| 20260505230022 | 47 | 187 | 10.4 | 11.3 | 0.00 | 0.00 | 0.00 | 87 | 1015.6 |
| 20260505225059 | 48 | 192 | 9.6 | 11.3 | 0.00 | 0.00 | 0.00 | 88 | 1015.6 |
| 20260505224016 | 50 | 193 | 10.4 | 11.3 | 0.00 | 0.00 | 0.00 | 91 | 1015.8 |
| 20260505223033 | 51 | 182 | 8.7 | 9.6 | 0.00 | 0.00 | 0.00 | 93 | 1015.8 |
| 20260505222050 | 52 | 173 | 8.7 | 9.6 | 0.00 | 0.00 | 0.00 | 92 | 1015.8 |
| 20260505221027 | 52 | 173 | 8.7 | 10.4 | 0.00 | 0.00 | 0.00 | 92 | 1015.9 |
| 20260505220044 | 52 | 171 | 7.8 | 9.6 | 0.00 | 0.00 | 0.00 | 91 | 1016.0 |
| 20260505215021 | 53 | 173 | 7.0 | 8.7 | 0.00 | 0.00 | 0.00 | 90 | 1015.9 |
| 20260505214018 | 53 | 172 | 7.8 | 9.6 | 0.00 | 0.00 | 0.00 | 88 | 1016.0 |
| 20260505213035 | 53 | 172 | 7.0 | 8.7 | 0.00 | 0.00 | 0.00 | 85 | 1015.9 |
| 20260505212032 | 53 | 177 | 7.0 | 8.7 | 0.00 | 0.00 | 0.00 | 85 | 1015.9 |
| 20260505211049 | 53 | 178 | 6.1 | 7.8 | 0.00 | 0.00 | 0.00 | 86 | 1015.9 |
| 20260505210026 | 53 | 182 | 5.2 | 7.8 | 0.00 | 0.00 | 0.00 | 84 | 1015.8 |
| 20260505205022 | 53 | 179 | 5.2 | 7.8 | 0.00 | 0.00 | 0.00 | 79 | 1016.0 |
| 20260505204019 | 54 | 183 | 5.2 | 7.8 | 0.00 | 0.00 | 0.00 | 77 | 1015.9 |
| 20260505203016 | 53 | 174 | 7.8 | 9.6 | 0.00 | 0.00 | 0.00 | 68 | 1015.9 |
| 20260505202033 | 53 | 181 | 8.7 | 9.6 | 0.00 | 0.00 | 0.00 | 69 | 1015.8 |
| 20260505201030 | 53 | 180 | 9.6 | 10.4 | 0.00 | 0.00 | 0.00 | 73 | 1015.9 |
| 20260505200028 | 53 | 177 | 8.7 | 9.6 | 0.00 | 0.00 | 0.00 | 84 | 1015.8 |
| 20260505195025 | 54 | 163 | 9.6 | 12.2 | 0.00 | 0.00 | 0.00 | 84 | 1015.9 |
| 20260505194021 | 54 | 160 | 7.8 | 11.3 | 0.00 | 0.00 | 0.00 | 83 | 1015.8 |
| 20260505193018 | 54 | 163 | 7.8 | 11.3 | 0.00 | 0.00 | 0.00 | 84 | 1015.7 |